Regional Weather Roundup
Issued by NWS

Home | Current Version | Previous Version | Text Only | Print | Product List | Glossary Off
Versions: 1 2 3 4 5 6 7 8 9 10 11 12 13 14 15 16 17 18 19 20 21 22 23 24 25 26 27

000
ASUS45 KCYS 221010
RWRWY

WYOMING REGIONAL WEATHER ROUNDUP
NATIONAL WEATHER SERVICE CHEYENNE WY
400 AM MDT TUE APR 22 2014

NOTE:  "FAIR" INDICATES FEW OR NO CLOUDS BELOW 12,000 FEET
WITH NO SIGNIFICANT WEATHER AND/OR OBSTRUCTIONS TO VISIBILITY.

WYZ001-221100-
YELLOWSTONE NATIONAL PARK

CITY           SKY/WX    TMP DP  RH WIND       PRES   REMARKS
LK YELLOWSTONE   N/A     35  33  92 CALM      30.08F
W YELLOWSTONE  NOT AVBL

$$
WYZ002>013-054>058-071-098>099-221100-
NORTHERN WYOMING

CITY           SKY/WX    TMP DP  RH WIND       PRES   REMARKS
JACKSON        CLOUDY    43  34  70 NW12      29.99F
CODY           MOCLDY    46  28  49 S7        29.91S
GREYBULL       CLOUDY    50  33  52 W6        29.86F
WORLAND        PTCLDY    40  31  70 CALM      29.88S
SHERIDAN         N/A     36  28  75 NE6         N/A  WCI  31
BUFFALO        PTCLDY    50  30  46 SW10      29.91F
GILLETTE       PTCLDY    45  31  58 S10       29.92F
HULETT         FAIR      52  30  43 CALM      29.94
NEWCASTLE      FAIR      52  27  37 E15       29.97

$$
WYZ014>020-022>026-101>103-221100-
CENTRAL WYOMING

CITY           SKY/WX    TMP DP  RH WIND       PRES   REMARKS
BIG PINEY      CLOUDY    40  25  55 E8        30.00F WCI  34
PINEDALE       PTSUNNY   41  30  65 NE3       30.02F
DUBOIS         FAIR      37  23  56 NW13      29.98F WCI  29
LANDER         CLEAR     45  25  45 W7G18     29.92F
RIVERTON       CLEAR     38  24  57 W5        29.93F WCI  34
CASPER         MOCLDY    34  30  85 CALM      29.96F
DOUGLAS        MOCLDY    42  34  73 CALM      29.97F

$$
WYZ021-027>030-104>119-221100-
SOUTHERN WYOMING

CITY           SKY/WX    TMP DP  RH WIND       PRES   REMARKS
EVANSTON         N/A     49  27  42 S9        29.98F
KEMMERER       CLOUDY    46  28  49 CALM      30.00F
FORT BRIDGER   FAIR      47  30  51 S15       30.01F
ROCK SPRINGS   CLOUDY    50  26  39 S9        30.00F
DIXON          FAIR      41  29  64 CALM      30.08F
RAWLINS        MOCLDY    38  19  46 N5        30.04F WCI  34
SARATOGA       FAIR      45  27  49 S18G24    30.07F
LARAMIE        PTCLDY    34  25  69 S7        30.09F WCI  28
CHEYENNE       PTCLDY    40  32  73 S3        30.06F
TORRINGTON     PTCLDY    42  30  62 E8        29.98F
PINE BLUFFS    FAIR      43  32  65 W5        30.05S

$$



USA.gov is the U.S. government's official web portal to all federal, state and local government web resources and services.